OPS 3367 B

Satellite information

Favourite Embed

Satellite Type and Status

PAYLOADIN ORBIT

Key statistics

Satellite OPS 3367 B at a glance.

Uptime

22559

Days in orbit

Revolutions

≈ 14.3

Per day

Orbit

SSO

Sun Synchronous Orbit

Inclination

99.0

Latest

Satellite identification and parameters

Extended collection of information and parameters for OPS 3367 B.

Object identification

Identified? True

Debris? False

Object name: OPS 3367 B

International designator: 1964-002C

Object number (NORAD): 735

Object ID (CCSDS): 735

Country: UNITED STATES OF AMERICA (US)

Current information (Y/N): Y

RCS size: MEDIUM

Orbital parameters

Period: 100.805 minutes

Inclination: 98.976 deg

SMA: 7174.903 km

Apoapsis: 807.838 km

Periapsis: 785.699 km

RAAN: 209.5366 deg

Eccentricy: 0.0015428

Argument of periapsis: 272.7295 deg

Mean anomaly: 87.2119 deg

Mean motion: 14.28494808 rev/day

Mean motion (dot): 0.00000194 rev/day2

B* drag term: 0.000096049548 1/REarth

Two-line elements (TLE)

Creation date: Oct. 24, 2025, 2:48 a.m.

Reference frame: TEME

Reference center: EARTH

Epoch: Oct. 23, 2025, 3:57 p.m. UTC

TLE line 0: 0 OPS 3367 B

TLE line 1: 1 00735U 64002C 25296.66518027 .00000194 00000-0 96050-4 0 9994

TLE line 2: 2 00735 98.9760 209.5366 0015428 272.7295 87.2119 14.28494808212945

Live tracking on map

Real-time ground track for satellite OPS 3367 B.

In-orbit conjunctions

There are no conjunctions computed for OPS 3367 B, at the moment. Check back to stay up to date, as we update our databases every day.

Go to all conjunctions

Associated space launch

The DSAP-1 (Defense Satellite Application Program Block 1) satellites series, also known as P-35, was the first series of military meteorologal satellites of the USA.

OPS 3367 B was lifted into orbit during the mission ‘Thor SLV-2 Agena D | DSAP-1 F6 & F7’, on board a Thor SLV-2 Agena D space rocket.

The launch took place on Jan. 19, 1964, 10:59 a.m. from Space Launch Complex 2W.

For more information about the launch, click the button.

Launch to space Thor SLV-2 Agena D | DSAP-1 F6 & F7
Thor SLV-2 Agena D | DSAP-1 F6 & F7

Agency: N/A

Status: Launch Successful

Launch date: Jan. 19, 1964, 10:59 a.m. UTC

Rocket: Thor SLV-2 Agena D

Launch pad: Space Launch Complex 2W

Location: Vandenberg SFB, CA, USA

...

Latest news about this satellite

There are no fresh news available about this satellite. Check back as we update our databases every day.


Newsletter sign-up

Weekly statistics, charts and insights to help you stay on top of the space industry.